Price, UT

2:47 PM MST on November 17, 2017 (GMT -0700)
Carbon County

Weather History for KPUC - December, 2013

Change the Weather History Date:

Tuesday, December 3, 2013

  Actual Average Record
Temperature  
Mean Temperature 30 °F -  
Max Temperature 34 °F 36 °F 56 °F (1977)
Min Temperature 25 °F 18 °F 3 °F (2004)
Degree Days  
Heating Degree Days 35    
Moisture  
Dew Point 25 °F    
Average Humidity 81    
Maximum Humidity 93    
Minimum Humidity 51    
Precipitation  
Precipitation 0.01 in - - ()
Sea Level Pressure  
Sea Level Pressure 29.62 in    
Wind  
Wind Speed 3 mph (NNW)    
Max Wind Speed 18 mph    
Max Gust Speed 29 mph    
Visibility 6 miles    
Events Snow    
Averages and records for this station are not official NWS values.
T = Trace of Precipitation, MM = Missing Value Source: NWS Daily Summary

Daily Weather History Graph

Daily Weather History Graph

Search for Another Location

Airport or City:

Trip Planner

Search our weather history database for the weather conditions in past years. The results will help you decide how hot, cold, wet, or windy it might be!

Date:

Astronomy

Dec. 03, 2013 Rise Set
Actual Time 7:26 AM MST 4:58 PM MST
Civil Twilight 6:56 AM MST 5:28 PM MST
Nautical Twilight 6:23 AM MST 6:02 PM MST
Astronomical Twilight 5:50 AM MST 6:34 PM MST
Moon 7:59 AM MST (12/3) 6:06 PM MST (12/3)
Length of Visible Light 10h 32m
Length of Day
9h 32m
New Moon, 1% of the Moon is Illuminated
Dec 3
New Moon
Dec 9
First Quarter
Dec 17
Full
Dec 25
Last Quarter
Jan 1
New

Hourly Weather History & Observations

Time (MST) Temp. Windchill Dew Point Humidity Pressure Visibility Wind Dir Wind Speed Gust Speed Precip Events Conditions
12:08 AM 30.0 °F - 26.1 °F 85% 29.78 in 10.0 mi Calm Calm - N/A   Overcast
12:44 AM 28.9 °F - 25.0 °F 85% 29.76 in 10.0 mi Calm Calm - N/A   Overcast
12:53 AM 28.9 °F 25.2 °F 25.0 °F 85% 29.88 in 10.0 mi WSW 3.5 mph - N/A   Overcast
1:14 AM 28.9 °F - 26.1 °F 89% 29.76 in 10.0 mi Calm Calm - N/A   Overcast
1:53 AM 30.0 °F - 26.1 °F 85% 29.83 in 10.0 mi Calm Calm - N/A   Overcast
2:42 AM 30.0 °F - 26.1 °F 85% 29.71 in 10.0 mi Calm Calm - N/A   Overcast
2:53 AM 30.0 °F - 26.1 °F 85% 29.81 in 10.0 mi Calm Calm - N/A   Overcast
3:53 AM 28.9 °F 25.2 °F 26.1 °F 89% 29.75 in 9.0 mi SSE 3.5 mph - N/A   Overcast
4:53 AM 28.9 °F - 27.0 °F 92% 29.74 in 3.0 mi Calm Calm - N/A   Overcast
5:07 AM 28.9 °F - 27.0 °F 92% 29.64 in 3.0 mi Calm Calm - N/A   Overcast
5:19 AM 28.9 °F - 27.0 °F 92% 29.63 in 2.0 mi Calm Calm - N/A   Overcast
5:40 AM 28.9 °F 25.2 °F 27.0 °F 92% 29.63 in 1.5 mi SW 3.5 mph - N/A   Overcast
5:53 AM 28.9 °F - 27.0 °F 92% 29.73 in 1.8 mi Calm Calm - N/A   Overcast
6:02 AM 28.9 °F 25.2 °F 27.0 °F 92% 29.63 in 2.5 mi NW 3.5 mph - N/A   Overcast
6:10 AM 28.9 °F - 27.0 °F 92% 29.63 in 3.0 mi Calm Calm - N/A   Overcast
6:31 AM 28.9 °F 25.2 °F 27.0 °F 92% 29.63 in 4.0 mi WNW 3.5 mph - N/A   Overcast
6:53 AM 28.9 °F - 27.0 °F 92% 29.73 in 4.0 mi Calm Calm - 0.00 in   Overcast
7:01 AM 30.0 °F 25.2 °F 27.0 °F 88% 29.63 in 4.0 mi NNE 4.6 mph - 0.00 in   Overcast
7:29 AM 30.0 °F 26.5 °F 28.0 °F 92% 29.63 in 2.0 mi NNE 3.5 mph - 0.00 in Snow Light Snow
7:42 AM 30.0 °F 25.2 °F 28.0 °F 92% 29.62 in 1.8 mi NE 4.6 mph - 0.00 in   Overcast
7:48 AM 30.2 °F 25.4 °F 28.4 °F 93% 29.62 in 2.5 mi ENE 4.6 mph - 0.00 in   Overcast
7:53 AM 30.0 °F 26.5 °F 28.0 °F 92% 29.71 in 3.0 mi ENE 3.5 mph - 0.00 in   Overcast
8:09 AM 30.9 °F - 28.0 °F 89% 29.61 in 7.0 mi Calm Calm - N/A   Overcast
8:18 AM 30.9 °F 27.5 °F 28.0 °F 89% 29.62 in 7.0 mi SE 3.5 mph - N/A   Overcast
8:44 AM 30.9 °F - 28.0 °F 89% 29.62 in 2.0 mi Calm Calm - 0.00 in Snow Light Snow
8:53 AM 30.9 °F - 28.9 °F 92% 29.70 in 2.5 mi Calm Calm - 0.00 in Snow Light Snow
9:01 AM 30.9 °F - 28.9 °F 92% 29.61 in 3.0 mi Calm Calm - 0.00 in Snow Light Snow
9:24 AM 32.0 °F 27.5 °F 28.0 °F 85% 29.60 in 6.0 mi East 4.6 mph - 0.00 in   Overcast
9:53 AM 32.0 °F 27.5 °F 28.9 °F 88% 29.67 in 6.0 mi SE 4.6 mph - 0.00 in   Overcast
10:53 AM 32.0 °F 28.7 °F 28.9 °F 88% 29.65 in 6.0 mi West 3.5 mph - N/A   Overcast
11:53 AM 33.1 °F - 28.0 °F 82% 29.60 in 10.0 mi Calm Calm - N/A   Overcast
12:53 PM 33.1 °F - 28.0 °F 82% 29.57 in 10.0 mi Calm Calm - N/A   Overcast
1:24 PM 34.0 °F 31.0 °F 28.9 °F 82% 29.49 in 10.0 mi North 3.5 mph - N/A   Overcast
1:43 PM 34.0 °F 29.8 °F 28.9 °F 82% 29.49 in 2.5 mi NNW 4.6 mph - 0.00 in Snow Light Snow
1:53 PM 34.0 °F 31.0 °F 28.9 °F 82% 29.55 in 2.0 mi NNW 3.5 mph - 0.00 in Snow Light Snow
2:01 PM 34.0 °F 29.8 °F 28.9 °F 82% 29.48 in 1.8 mi North 4.6 mph - 0.00 in Snow Light Snow
2:23 PM 34.0 °F 31.0 °F 30.0 °F 85% 29.47 in 1.0 mi NW 3.5 mph - 0.00 in Snow Light Snow
2:42 PM 32.0 °F 23.6 °F 28.0 °F 85% 29.48 in 1.5 mi NNW 10.4 mph - 0.00 in Snow Light Snow
2:50 PM 32.0 °F 24.2 °F 26.6 °F 80% 29.48 in 2.0 mi NNW 9.2 mph - 0.00 in Snow Light Snow
2:51 PM 32.0 °F 23.6 °F 26.1 °F 79% 29.56 in 2.0 mi NNW 10.4 mph - 0.00 in Snow Light Snow
3:00 PM 30.9 °F 22.8 °F 26.1 °F 82% 29.48 in 2.0 mi NNW 9.2 mph - 0.00 in Snow Light Snow
3:06 PM 30.9 °F 22.2 °F 26.1 °F 82% 29.48 in 1.8 mi NNW 10.4 mph - 0.00 in Snow Light Snow
3:15 PM 30.9 °F 22.2 °F 25.0 °F 79% 29.48 in 2.5 mi NNW 10.4 mph - 0.00 in Snow Light Snow
3:25 PM 30.9 °F 24.3 °F 25.0 °F 79% 29.49 in 3.0 mi NNW 6.9 mph - 0.00 in Snow Light Snow
3:42 PM 30.9 °F 21.2 °F 24.1 °F 76% 29.50 in 2.5 mi NNW 12.7 mph - 0.01 in Snow Light Snow
3:53 PM 30.9 °F 20.7 °F 23.0 °F 72% 29.59 in 2.5 mi NW 13.8 mph 21.9 mph 0.01 in Snow Light Snow
4:02 PM 30.9 °F 20.2 °F 21.9 °F 69% 29.52 in 5.0 mi NW 15.0 mph - 0.00 in Snow Light Snow
4:23 PM 30.9 °F 19.1 °F 19.0 °F 61% 29.52 in 10.0 mi NNW 18.4 mph 24.2 mph 0.00 in   Overcast
4:53 PM 30.0 °F 18.7 °F 16.0 °F 56% 29.60 in 10.0 mi NNW 16.1 mph 28.8 mph 0.00 in   Overcast
5:53 PM 28.9 °F 19.2 °F 14.0 °F 54% 29.62 in 10.0 mi NNW 11.5 mph - N/A   Overcast
6:53 PM 28.0 °F 17.0 °F 14.0 °F 56% 29.61 in 10.0 mi NW 13.8 mph 20.7 mph N/A   Overcast
7:53 PM 28.9 °F 20.4 °F 12.9 °F 51% 29.59 in 10.0 mi WNW 9.2 mph - N/A   Overcast
8:53 PM 28.9 °F 22.8 °F 12.9 °F 51% 29.58 in 10.0 mi NW 5.8 mph - N/A   Overcast
9:53 PM 26.1 °F 15.6 °F 12.9 °F 58% 29.59 in 10.0 mi WNW 11.5 mph - N/A   Overcast
10:53 PM 27.0 °F 18.7 °F 12.9 °F 56% 29.60 in 10.0 mi North 8.1 mph - N/A   Overcast
11:53 PM 25.0 °F 15.5 °F 10.0 °F 53% 29.59 in 10.0 mi NW 9.2 mph - N/A   Overcast